Temperature
20 20 20 20 20 20 20 20 20 20 20 20 20 19 19 19 19 19 19 19 19 18 18 18 18 18 18 18 18 18 18 18 18 18 18 18 17 17 17 17 17 17 17
21 20 20 20 20 20 20 20 20 20 19 19 19 19 19 19 19 19 19 18 18 18 18 18 18 18 18 18 18 18 18 18 18 18 18 17 17 17 17 17 17 17 17
21 20 20 20 20 20 20 20 20 20 19 19 19 19 19 19 19 19 18 18 18 18 18 18 18 18 18 18 18 18 18 18 17 17 18 17 17 17 17 17 17 17 17
21 21 20 20 20 20 20 20 20 19 19 19 19 19 19 19 19 19 18 18 18 18 18 18 18 18 18 18 18 17 17 17 17 17 17 17 17 17 17 17 17 17 17
21 21 20 20 20 20 20 20 19 19 19 19 19 19 19 19 19 19 18 18 18 18 19 19 19 18 18 18 18 17 17 17 17 17 17 17 17 17 17 17 17 17 17
21 21 20 20 20 20 20 19 19 19 19 19 19 19 19 19 18 18 18 18 18 18 19 19 19 18 18 18 17 17 17 17 17 17 17 18 18 17 17 17 17 17 17
20 20 20 20 20 20 20 19 19 19 19 19 19 19 19 18 18 18 18 18 18 18 18 18 18 18 18 18 17 17 17 17 17 17 17 18 18 18 17 17 17 17 17
20 20 20 20 20 20 20 19 19 19 19 19 19 18 18 18 18 18 18 18 18 18 18 18 18 18 18 18 17 17 17 17 17 17 17 18 18 18 17 17 17 17 17
20 20 20 20 20 20 20 19 19 19 19 19 18 18 18 18 18 18 18 18 18 18 18 18 18 18 18 18 18 17 17 17 17 17 18 18 18 18 18 17 17 17 17
20 20 20 20 20 19 19 19 19 19 19 18 18 18 18 18 18 18 18 18 18 18 18 18 18 18 18 18 18 17 17 17 18 18 18 18 18 18 18 17 17 17 17
19 20 20 19 19 19 19 19 19 19 18 18 18 18 18 18 18 18 18 18 18 18 18 18 18 18 18 18 18 17 17 17 18 18 18 18 18 18 18 18 17 17 17
19 19 19 19 19 19 19 19 19 18 18 18 18 18 18 18 17 17 17 17 17 17 17 17 17 17 17 17 17 17 17 18 18 18 18 18 18 18 17 17 17 17 17
19 19 19 19 19 19 19 19 18 18 18 18 18 18 17 17 17 17 17 17 17 17 17 17 17 17 17 17 17 17 17 17 17 18 18 18 18 17 17 17 17 17 17
19 19 19 19 19 19 19 19 18 18 18 18 18 18 17 17 17 17 17 17 17 17 17 17 17 17 17 17 17 17 17 17 17 17 17 18 17 17 17 17 17 17 17
19 19 19 19 19 19 19 19 18 18 18 18 18 18 17 17 17 17 17 17 16 16 16 16 16 16 17 17 17 17 17 17 17 17 17 17 17 17 17 17 17 17 17
19 19 19 19 19 19 19 19 18 18 18 18 18 18 17 17 17 17 17 16 16 16 16 16 16 16 16 16 16 16 16 16 16 17 17 17 17 17 17 17 17 17 17
19 19 19 19 19 19 19 18 18 18 18 18 18 18 17 17 17 17 16 16 16 16 16 16 16 16 16 16 16 16 16 16 16 16 16 17 17 17 17 17 16 17 17
19 19 19 19 19 19 18 18 18 18 18 18 18 18 17 17 17 16 16 16 16 16 16 16 16 16 16 16 16 16 16 16 16 16 16 16 16 16 16 16 16 16 16
19 19 19 19 19 18 18 18 18 18 18 18 18 18 17 17 17 16 16 16 16 16 16 16 16 16 16 16 16 16 16 16 16 16 16 16 16 16 16 16 16 16 16
19 19 19 19 19 18 18 18 18 18 18 18 18 17 17 17 16 16 16 16 15 15 15 15 15 16 16 16 16 16 16 16 16 16 16 16 16 16 16 16 16 16 16
19 19 19 19 18 18 18 18 18 18 18 18 17 17 17 17 16 16 16 15 15 15 15 15 15 15 16 16 16 16 16 16 16 16 16 16 16 16 16 16 16 16 16
19 19 19 19 18 18 18 18 18 18 18 17 17 17 17 16 16 16 15 15 15 15 15 15 15 15 15 16 16 16 16 16 16 16 16 16 16 16 16 16 16 16 16
19 19 19 19 18 18 18 18 18 18 17 17 17 17 16 16 16 16 15 15 15 15 15 15 15 15 15 15 16 16 16 16 16 16 16 16 16 16 16 16 16 15 15
19 19 19 18 18 18 18 18 18 18 17 17 17 17 16 16 16 16 15 15 15 15 15 15 15 15 15 15 15 16 16 16 16 16 16 16 16 16 16 16 16 16 15
19 19 18 18 18 18 18 18 18 18 18 17 17 17 16 16 16 16 15 15 15 15 15 15 15 15 15 15 15 15 15 15 16 16 16 16 16 16 16 16 16 15 15
18 18 18 18 18 18 18 18 18 18 17 17 17 17 16 16 16 16 15 15 15 15 15 15 15 15 15 15 15 15 15 15 15 16 15 15 16 16 15 15 15 15 15
Wind_Speed
10 15 22 22 21 21 21 20 20 19 19 18 18 18 18 18 17 17 16 16 15 14 14 13 13 12 12 12 13 14 14 15 16 17 17 18 18 18 19 19 18 17 19
14 19 23 22 22 21 21 20 20 19 18 18 17 17 17 17 16 16 15 15 14 14 13 13 13 12 12 12 12 13 13 14 15 16 17 16 16 17 18 18 17 16 18
18 19 22 23 22 22 21 20 20 19 18 17 17 16 16 16 16 15 15 14 14 14 13 12 12 12 12 12 12 12 12 13 14 16 15 13 14 17 18 18 18 18 17
18 19 21 23 22 22 21 20 19 19 18 17 16 16 16 15 15 15 14 14 13 13 12 12 11 11 11 11 11 11 11 11 13 14 12 11 13 17 18 17 17 17 16
15 18 22 24 23 22 21 20 19 18 18 17 16 16 15 15 14 14 14 13 13 12 12 11 10 10 9 10 9 9 8 8 10 11 11 12 14 16 17 16 16 16 16
13 17 22 24 23 22 21 20 19 18 17 16 16 15 15 14 14 13 13 12 12 12 11 10 9 8 8 8 8 9 9 7 9 11 13 13 14 15 16 15 15 15 15
13 15 20 23 23 22 21 19 18 18 17 16 15 14 14 14 13 12 12 12 11 11 10 9 8 7 6 6 7 9 9 7 10 12 12 12 14 15 15 14 14 14 14
15 13 18 22 22 21 20 19 18 17 16 15 14 14 13 13 12 12 11 11 10 10 9 8 7 5 4 4 6 8 9 9 10 11 11 12 15 15 14 14 14 14 14
12 12 13 17 19 20 20 19 18 17 16 15 14 13 13 12 11 11 10 10 9 9 8 7 6 4 2 3 4 7 9 10 11 10 10 10 14 15 15 14 13 13 13
11 10 9 12 14 15 16 18 17 16 15 14 14 13 12 11 11 10 9 8 8 7 7 6 5 3 2 0 2 5 8 10 10 9 9 10 14 14 14 14 13 13 13
12 9 8 8 10 12 13 15 16 15 14 13 12 12 11 9 8 8 8 7 7 6 6 5 4 3 2 1 1 3 7 8 10 9 9 11 14 14 14 14 14 13 13
13 12 10 9 9 10 11 12 11 11 11 10 9 9 8 7 7 7 7 7 6 5 5 4 3 2 1 0 1 2 6 8 9 9 9 12 13 13 14 14 14 13 13
13 12 11 10 9 8 6 9 8 8 8 8 7 7 7 6 5 5 4 3 4 4 3 2 2 2 2 2 1 4 7 8 8 8 10 13 13 14 14 15 15 14 14
13 11 11 11 9 7 8 7 6 6 5 5 7 8 8 5 4 4 3 3 3 3 2 2 2 2 2 3 4 5 7 7 8 8 11 13 14 14 15 15 15 14 14
12 11 10 10 10 7 6 5 6 5 6 7 8 9 10 5 3 3 3 3 3 4 3 2 2 1 1 2 3 6 6 8 9 10 10 13 15 15 15 16 16 15 15
12 11 10 10 10 8 7 6 5 7 8 9 9 11 11 8 5 4 3 3 3 3 3 3 2 2 1 1 1 4 6 8 9 10 11 12 14 15 15 15 15 15 15
14 11 11 11 10 10 8 7 7 8 9 8 9 11 11 9 7 5 3 2 2 4 5 4 4 3 2 1 1 1 3 6 8 10 11 11 12 14 15 15 15 15 15
13 11 11 11 10 9 8 6 6 8 9 8 10 10 10 10 9 6 3 3 4 5 4 3 3 3 3 2 1 0 1 2 4 6 8 9 10 10 13 15 15 15 14
13 12 9 9 10 9 9 7 7 8 8 9 10 9 9 10 10 7 4 3 6 5 3 3 3 2 2 1 0 1 0 1 1 3 4 6 9 10 11 12 14 14 13
12 12 11 10 9 9 8 7 6 6 5 7 7 8 9 9 9 7 4 4 6 4 3 3 3 3 1 1 1 2 1 0 0 1 2 3 6 8 10 9 10 11 12
11 11 11 11 9 9 7 7 7 6 5 5 5 9 9 9 8 7 4 4 4 4 3 3 2 3 3 2 3 3 4 3 2 0 1 2 2 4 7 8 9 8 8
12 12 12 11 10 9 7 6 6 6 5 5 4 6 9 9 8 7 5 4 4 4 4 4 3 2 2 2 3 3 3 4 4 3 1 1 2 2 4 6 7 7 6
12 13 13 12 11 10 9 6 6 5 4 3 4 4 5 9 8 8 7 5 4 4 3 3 3 4 2 3 2 3 4 3 2 3 2 1 1 1 1 3 5 7 7
13 12 11 11 11 10 9 9 10 7 6 6 5 5 5 7 8 9 8 7 5 4 4 3 4 3 4 2 2 2 2 3 3 0 3 3 2 0 1 2 3 5 7
12 12 11 11 10 10 9 11 10 7 5 4 5 6 5 4 6 8 8 6 5 4 4 4 4 4 3 3 2 2 3 3 2 3 0 3 3 3 2 1 2 4 7
10 11 11 12 10 10 10 10 10 9 8 7 6 7 5 4 4 5 7 6 5 4 5 4 4 5 3 3 2 2 2 2 1 2 2 1 2 3 2 1 1 3 6
Wind_Direction
149 149 143 136 131 127 123 120 116 113 111 109 107 105 104 104 104 104 105 106 107 105 103 102 100 97 96 97 99 102 105 109 111 112 113 114 115 114 113 112 110 110 112
147 147 143 137 133 130 127 124 122 120 118 115 113 111 110 108 108 108 108 108 107 107 105 103 101 98 96 96 98 101 106 111 114 114 112 112 114 115 116 115 114 116 115
141 144 141 137 134 132 130 128 126 125 123 121 118 116 116 114 113 112 111 110 109 109 108 106 104 99 96 94 95 100 105 110 112 111 108 105 111 117 119 118 118 117 116
140 141 141 138 136 134 133 131 131 130 128 126 124 122 119 118 117 116 115 114 113 111 111 109 106 100 97 93 92 95 102 109 114 114 111 109 113 119 121 120 120 119 119
137 139 142 139 138 136 136 135 135 134 132 131 128 127 124 122 121 120 119 118 116 115 114 112 108 101 96 91 87 85 88 104 120 121 119 115 118 123 124 124 124 123 122
135 138 142 140 139 138 139 139 138 137 137 135 132 130 128 125 125 125 123 121 119 119 118 116 111 105 96 86 77 69 70 87 118 124 125 124 127 130 129 128 126 126 126
136 137 142 142 142 142 142 142 142 142 141 139 137 134 132 130 130 129 127 125 124 123 122 120 115 109 99 84 72 64 64 80 121 129 132 132 134 134 134 132 130 130 128
138 136 142 144 144 144 144 145 145 145 145 144 142 140 138 137 134 132 132 132 132 130 130 128 124 116 100 78 67 64 71 84 123 133 136 138 141 138 136 136 135 134 132
142 141 143 147 148 148 148 149 149 150 150 149 146 145 145 144 142 142 141 141 141 141 140 137 135 132 113 74 62 68 81 92 114 129 140 146 147 144 143 142 141 141 139
144 144 142 145 147 149 151 153 153 154 154 153 152 152 152 153 153 153 152 151 150 151 152 149 150 157 154 91 47 74 89 101 118 133 141 156 156 153 151 150 149 147 145
148 147 146 145 147 149 153 157 157 157 159 158 159 160 158 158 162 165 166 165 162 160 162 164 166 173 179 259 339 76 100 119 133 146 153 164 165 161 159 157 156 155 153
159 161 159 155 154 156 160 154 158 160 163 165 168 164 163 170 178 176 179 177 171 165 167 174 179 181 183 258 350 88 120 136 141 155 167 170 173 171 168 165 163 162 162
165 165 164 162 162 162 152 158 161 162 167 171 170 161 156 157 161 160 156 167 169 165 154 158 152 146 134 154 146 122 136 146 151 161 174 179 181 181 178 174 172 170 169
163 166 166 164 164 161 153 159 163 162 162 158 157 153 140 132 128 128 132 150 146 144 142 148 143 149 144 148 147 139 145 152 158 173 188 190 190 190 187 184 181 179 178
160 163 164 162 162 159 151 159 162 163 156 150 138 137 136 126 122 119 118 121 126 133 137 136 141 141 134 136 140 144 151 159 166 178 192 196 197 194 194 191 188 187 186
159 165 162 160 159 155 153 152 153 152 149 138 126 126 125 120 119 117 108 96 96 106 116 124 116 103 117 135 134 140 149 162 173 182 194 203 204 202 202 198 195 193 191
159 163 162 159 158 151 148 152 149 148 141 129 126 124 118 114 112 113 108 93 79 91 95 85 69 66 72 74 88 130 147 162 172 184 194 204 209 212 211 205 203 201 198
154 156 162 162 156 148 147 147 142 142 135 130 129 125 118 112 112 106 100 84 79 89 87 83 64 59 53 56 46 341 148 167 183 187 189 200 208 213 216 212 208 208 205
156 155 156 156 155 150 147 141 136 137 138 138 133 129 122 116 117 111 99 90 91 83 74 84 69 79 68 42 36 61 73 165 188 186 185 199 208 211 214 217 214 213 213
160 161 158 158 155 145 135 127 125 127 136 140 138 138 132 125 121 113 106 96 99 90 75 68 61 52 72 47 38 43 358 315 145 141 166 175 194 203 208 213 215 218 221
162 164 162 161 159 146 141 143 143 148 153 149 152 151 144 137 127 117 110 97 100 101 100 86 68 49 28 37 62 27 1 1 10 12 106 115 150 185 189 199 205 212 225
169 168 163 164 163 157 156 155 150 150 158 159 153 155 153 144 138 128 122 121 116 105 81 69 69 67 22 45 104 89 33 360 352 355 355 125 123 137 175 195 204 208 215
175 174 173 170 168 165 158 140 128 113 108 118 149 166 166 152 145 137 137 129 121 120 114 97 87 91 60 16 74 134 136 197 301 332 332 358 122 125 157 175 187 195 199
184 176 171 172 168 167 159 153 154 157 165 183 176 174 174 164 155 150 146 136 127 130 134 124 99 101 102 50 7 33 128 153 144 336 332 337 335 248 198 177 171 180 182
181 177 174 172 171 170 167 163 162 164 170 169 162 163 172 172 168 163 156 143 136 138 141 126 112 104 107 110 73 42 50 55 80 127 255 323 334 310 269 212 172 168 173
180 179 175 172 177 176 172 168 169 173 171 164 167 172 179 180 179 177 167 157 152 148 153 149 135 125 121 115 105 94 106 102 104 125 147 266 291 298 306 294 206 190 184
Height
1526 1528 1531 1532 1534 1535 1536 1537 1538 1539 1540 1540 1541 1542 1543 1543 1544 1545 1546 1547 1547 1548 1548 1549 1549 1550 1550 1550 1550 1551 1551 1552 1552 1553 1553 1554 1554 1555 1556 1556 1557 1557 1558
1524 1528 1531 1533 1534 1536 1537 1538 1539 1540 1540 1541 1542 1543 1544 1544 1545 1546 1547 1547 1548 1549 1549 1550 1550 1550 1551 1551 1552 1552 1553 1553 1554 1554 1555 1556 1557 1557 1558 1558 1559 1560 1560
1524 1528 1531 1533 1535 1536 1538 1539 1539 1540 1541 1542 1543 1544 1544 1545 1546 1547 1548 1548 1549 1550 1550 1551 1551 1552 1552 1553 1553 1554 1554 1555 1555 1556 1557 1558 1558 1559 1560 1560 1561 1562 1562
1524 1528 1531 1534 1536 1537 1538 1539 1540 1541 1542 1543 1543 1544 1545 1546 1547 1548 1549 1549 1550 1551 1551 1552 1552 1553 1554 1554 1555 1556 1556 1557 1557 1558 1559 1560 1560 1561 1562 1562 1563 1564 1564
1525 1528 1531 1534 1536 1538 1539 1540 1541 1542 1542 1543 1544 1545 1546 1547 1548 1549 1549 1550 1551 1552 1552 1553 1554 1555 1555 1556 1557 1558 1558 1559 1559 1560 1560 1561 1562 1563 1563 1564 1565 1565 1566
1525 1529 1532 1534 1536 1538 1540 1541 1542 1543 1543 1544 1545 1546 1547 1547 1548 1549 1550 1551 1552 1552 1553 1554 1555 1556 1557 1558 1559 1559 1560 1560 1561 1561 1562 1563 1563 1564 1565 1565 1566 1567 1568
1526 1529 1532 1535 1537 1538 1540 1541 1542 1543 1544 1545 1545 1546 1547 1548 1549 1550 1551 1552 1552 1553 1554 1555 1556 1557 1558 1559 1560 1561 1561 1561 1562 1562 1563 1564 1564 1565 1566 1567 1568 1568 1569
1527 1530 1533 1536 1538 1539 1540 1542 1543 1544 1544 1545 1546 1547 1548 1549 1550 1551 1551 1552 1553 1554 1555 1556 1557 1558 1559 1560 1561 1562 1562 1562 1563 1564 1564 1565 1566 1567 1567 1568 1569 1570 1570
1528 1531 1533 1536 1538 1540 1541 1542 1543 1544 1545 1546 1547 1547 1548 1549 1550 1551 1552 1553 1553 1554 1555 1556 1557 1559 1560 1561 1562 1562 1562 1563 1564 1564 1565 1566 1567 1568 1568 1569 1570 1571 1571
1528 1531 1533 1536 1538 1540 1541 1543 1543 1544 1545 1546 1547 1548 1549 1550 1551 1551 1552 1553 1554 1554 1555 1556 1557 1559 1560 1561 1562 1562 1562 1563 1564 1565 1565 1567 1567 1568 1569 1570 1571 1571 1572
1528 1531 1533 1535 1538 1540 1541 1542 1544 1545 1546 1547 1548 1549 1550 1550 1551 1552 1552 1553 1553 1554 1555 1556 1557 1558 1559 1560 1561 1562 1562 1563 1564 1565 1565 1567 1568 1569 1570 1571 1571 1572 1573
1526 1530 1533 1535 1537 1539 1541 1542 1543 1545 1546 1547 1548 1549 1550 1550 1551 1552 1552 1553 1553 1554 1555 1556 1556 1558 1559 1560 1561 1562 1562 1563 1564 1565 1566 1567 1568 1569 1570 1571 1572 1572 1573
1525 1528 1532 1534 1537 1539 1540 1542 1544 1545 1546 1547 1548 1549 1550 1550 1551 1551 1552 1552 1553 1554 1555 1555 1556 1557 1559 1560 1560 1561 1562 1562 1564 1565 1565 1566 1567 1569 1569 1571 1572 1572 1573
1523 1527 1530 1533 1536 1538 1540 1541 1543 1545 1546 1547 1548 1549 1550 1550 1551 1551 1551 1552 1553 1553 1554 1555 1556 1557 1558 1559 1560 1561 1561 1562 1563 1564 1565 1566 1567 1568 1569 1570 1571 1572 1573
1521 1525 1528 1531 1534 1536 1538 1540 1543 1545 1546 1547 1548 1549 1550 1550 1550 1550 1551 1552 1552 1553 1554 1555 1556 1557 1558 1559 1559 1560 1560 1561 1562 1563 1564 1565 1566 1567 1568 1570 1571 1572 1573
1519 1522 1526 1529 1532 1535 1537 1539 1542 1544 1546 1547 1547 1548 1549 1550 1550 1550 1550 1551 1551 1552 1553 1554 1555 1556 1557 1558 1559 1560 1560 1561 1562 1563 1564 1565 1566 1567 1568 1569 1570 1571 1572
1517 1521 1524 1528 1531 1534 1536 1538 1541 1543 1545 1546 1547 1548 1548 1549 1549 1549 1550 1550 1551 1552 1553 1554 1555 1556 1557 1557 1558 1559 1560 1561 1561 1562 1563 1564 1565 1566 1567 1568 1569 1570 1571
1515 1519 1523 1526 1529 1532 1535 1538 1540 1543 1544 1546 1546 1547 1548 1548 1548 1549 1549 1550 1550 1551 1552 1553 1554 1555 1556 1557 1558 1559 1559 1560 1561 1562 1562 1563 1564 1565 1566 1567 1568 1569 1569
1513 1517 1520 1523 1527 1531 1534 1537 1539 1542 1544 1545 1546 1546 1547 1547 1547 1548 1548 1549 1550 1551 1552 1552 1553 1554 1555 1556 1557 1558 1559 1560 1560 1561 1562 1563 1564 1564 1565 1566 1567 1567 1568
1511 1515 1518 1522 1525 1529 1533 1536 1538 1541 1543 1544 1545 1545 1546 1546 1547 1547 1548 1548 1549 1550 1551 1552 1553 1554 1555 1556 1557 1558 1559 1560 1560 1561 1561 1562 1563 1563 1564 1564 1565 1566 1566
1509 1513 1516 1520 1524 1527 1530 1533 1535 1538 1541 1543 1544 1545 1545 1546 1546 1547 1548 1548 1549 1550 1551 1551 1552 1553 1555 1556 1557 1558 1559 1559 1560 1561 1561 1561 1562 1562 1563 1563 1564 1564 1564
1506 1511 1514 1518 1523 1525 1529 1532 1534 1537 1540 1542 1543 1544 1545 1545 1546 1547 1547 1548 1549 1549 1550 1551 1552 1553 1554 1555 1556 1557 1558 1560 1560 1560 1561 1561 1561 1561 1562 1562 1563 1563 1563
1505 1509 1513 1517 1520 1524 1527 1530 1534 1536 1538 1540 1542 1543 1544 1545 1546 1546 1547 1548 1548 1549 1550 1551 1552 1553 1554 1555 1556 1557 1558 1558 1559 1560 1560 1561 1561 1561 1561 1561 1561 1561 1562
1503 1508 1511 1515 1519 1522 1525 1528 1530 1533 1535 1538 1540 1542 1544 1545 1545 1546 1547 1548 1548 1549 1550 1551 1552 1553 1554 1555 1555 1556 1557 1557 1558 1559 1560 1560 1560 1560 1561 1561 1561 1561 1560
1503 1506 1509 1513 1517 1520 1523 1526 1529 1532 1534 1537 1539 1541 1543 1544 1545 1546 1546 1547 1547 1548 1549 1550 1551 1552 1553 1554 1555 1555 1556 1556 1557 1558 1558 1559 1560 1560 1560 1560 1560 1560 1560
1501 1504 1507 1510 1514 1517 1521 1524 1527 1530 1532 1535 1537 1539 1541 1543 1544 1545 1546 1546 1547 1548 1549 1550 1550 1552 1553 1554 1554 1555 1556 1556 1556 1557 1557 1558 1558 1559 1559 1559 1559 1559 1559